Hutchinson, MN

11:44 PM CST on February 27, 2017 (GMT -0600)
Hutchinson Municipal-Butler

Weather History for KHCD - October, 2011

Change the Weather History Date:

Saturday, October 8, 2011

  Actual Average Record
Temperature  
Mean Temperature 75 °F -  
Max Temperature 82 °F 62 °F 86 °F (1980)
Min Temperature 68 °F 40 °F 17 °F (2000)
Cooling Degree Days 10    
Growing Degree Days 25 (Base 50)    
Moisture  
Dew Point 57 °F    
Average Humidity 55    
Maximum Humidity 76    
Minimum Humidity 38    
Precipitation  
Precipitation 0.00 in - - ()
Sea Level Pressure  
Sea Level Pressure 30.00 in    
Wind  
Wind Speed 11 mph (SSW)    
Max Wind Speed 17 mph    
Max Gust Speed 32 mph    
Visibility 10 miles    
Events Rain    
Averages and records for this station are not official NWS values.
T = Trace of Precipitation, MM = Missing Value Source: NWS Daily Summary

Daily Weather History Graph

Daily Weather History Graph

Search for Another Location

Airport or City:

Trip Planner

Search our weather history database for the weather conditions in past years. The results will help you decide how hot, cold, wet, or windy it might be!

Date:

Astronomy

Oct. 08, 2011 Rise Set
Actual Time 7:23 AM CDT 6:45 PM CDT
Civil Twilight 6:54 AM CDT 7:14 PM CDT
Nautical Twilight 6:20 AM CDT 7:48 PM CDT
Astronomical Twilight 5:46 AM CDT 8:22 PM CDT
Moon 5:01 PM CDT (10/8) 4:05 AM CDT (10/8)
Length of Visible Light 12h 20m
Length of Day
11h 21m
Waxing Gibbous, 90% of the Moon is Illuminated
Oct 8
Waxing Gibbous
Oct 11
Full
Oct 19
Last Quarter
Oct 26
New
Nov 2
First Quarter

Hourly Weather History & Observations

Time (CDT) Temp. Heat Index Dew Point Humidity Pressure Visibility Wind Dir Wind Speed Gust Speed Precip Events Conditions
12:12 AM 77.2 °F - 59.7 °F 55% 29.88 in 10.0 mi South 17.3 mph 27.6 mph N/A   Scattered Clouds
12:33 AM 77.2 °F - 60.1 °F 55% 29.89 in 10.0 mi South 16.1 mph 32.2 mph N/A   Clear
12:52 AM 77.2 °F - 60.4 °F 56% 29.89 in 10.0 mi South 17.3 mph 25.3 mph N/A   Clear
1:13 AM 76.1 °F - 59.9 °F 57% 29.89 in 10.0 mi South 17.3 mph 26.5 mph N/A   Clear
1:32 AM 75.9 °F - 59.9 °F 57% 29.90 in 10.0 mi South 13.8 mph 27.6 mph N/A   Scattered Clouds
1:53 AM 75.7 °F - 59.4 °F 57% 29.91 in 10.0 mi South 15.0 mph 24.2 mph N/A   Mostly Cloudy
2:13 AM 74.7 °F - 59.0 °F 58% 29.91 in 10.0 mi South 16.1 mph 28.8 mph N/A   Scattered Clouds
2:33 AM 74.7 °F - 59.0 °F 58% 29.92 in 10.0 mi South 13.8 mph 23.0 mph N/A   Clear
2:52 AM 74.7 °F - 59.5 °F 59% 29.93 in 10.0 mi South 11.5 mph 19.6 mph N/A   Scattered Clouds
3:32 AM 74.7 °F - 60.1 °F 60% 29.93 in 10.0 mi South 8.1 mph 16.1 mph N/A   Clear
3:53 AM 72.1 °F - 58.3 °F 62% 29.93 in 10.0 mi South 9.2 mph - N/A   Clear
4:13 AM 72.1 °F - 58.6 °F 62% 29.93 in 10.0 mi South 8.1 mph - N/A   Clear
4:33 AM 72.1 °F - 58.1 °F 61% 29.94 in 10.0 mi South 9.2 mph - N/A   Clear
4:53 AM 70.7 °F - 57.2 °F 62% 29.95 in 10.0 mi South 8.1 mph - N/A   Clear
5:33 AM 69.8 °F - 56.7 °F 63% 29.97 in 10.0 mi South 8.1 mph - N/A   Clear
5:53 AM 69.8 °F - 57.2 °F 64% 29.98 in 10.0 mi South 6.9 mph - N/A   Clear
6:13 AM 69.8 °F - 57.2 °F 64% 29.97 in 10.0 mi South 5.8 mph - N/A   Scattered Clouds
6:33 AM 69.8 °F - 57.4 °F 65% 29.98 in 10.0 mi South 5.8 mph - N/A   Mostly Cloudy
6:52 AM 69.8 °F - 57.2 °F 64% 29.99 in 10.0 mi South 4.6 mph - N/A   Overcast
7:13 AM 69.8 °F - 56.8 °F 63% 30.00 in 10.0 mi South 8.1 mph - N/A   Mostly Cloudy
7:33 AM 69.8 °F - 56.5 °F 63% 29.99 in 10.0 mi South 9.2 mph 16.1 mph N/A   Mostly Cloudy
7:53 AM 69.8 °F - 56.1 °F 62% 30.02 in 10.0 mi South 11.5 mph - N/A   Scattered Clouds
8:12 AM 69.8 °F - 57.9 °F 66% 30.02 in 10.0 mi South 6.9 mph - N/A Rain Light Rain
8:33 AM 69.8 °F - 58.1 °F 66% 30.02 in 10.0 mi Calm Calm - N/A   Scattered Clouds
8:53 AM 68.7 °F - 59.4 °F 72% 30.02 in 10.0 mi South 5.8 mph - N/A   Mostly Cloudy
9:13 AM 69.8 °F - 59.7 °F 70% 30.02 in 10.0 mi South 8.1 mph - N/A   Mostly Cloudy
9:33 AM 69.8 °F - 58.8 °F 68% 30.02 in 10.0 mi SSE 5.8 mph - N/A   Scattered Clouds
9:53 AM 72.1 °F - 57.9 °F 61% 30.03 in 10.0 mi South 11.5 mph 16.1 mph N/A   Scattered Clouds
10:12 AM 74.7 °F - 57.9 °F 56% 30.03 in 10.0 mi SSE 10.4 mph - N/A   Scattered Clouds
10:33 AM 74.7 °F - 56.3 °F 53% 30.03 in 10.0 mi South 13.8 mph - N/A   Clear
11:13 AM 74.7 °F - 54.0 °F 48% 30.03 in 10.0 mi South 11.5 mph - N/A   Clear
11:32 AM 76.3 °F - 54.7 °F 47% 30.03 in 10.0 mi South 11.5 mph 17.3 mph N/A   Clear
11:53 AM 77.2 °F - 54.0 °F 44% 30.03 in 10.0 mi South 13.8 mph 20.7 mph N/A   Scattered Clouds
12:13 PM 76.5 °F - 53.6 °F 45% 30.03 in 10.0 mi SSW 12.7 mph 19.6 mph N/A   Mostly Cloudy
12:33 PM 77.2 °F - 54.0 °F 44% 30.03 in 10.0 mi South 10.4 mph - N/A   Mostly Cloudy
12:53 PM 77.2 °F - 53.4 °F 44% 30.03 in 5.0 mi SSW 12.7 mph 17.3 mph N/A   Haze
1:12 PM 77.9 °F - 53.4 °F 43% 30.04 in 10.0 mi SSW 10.4 mph 16.1 mph N/A   Mostly Cloudy
1:33 PM 77.2 °F - 52.9 °F 43% 30.04 in 10.0 mi SSW 10.4 mph 17.3 mph N/A   Mostly Cloudy
2:13 PM 80.6 °F 80.4 °F 54.1 °F 40% 30.03 in 10.0 mi SW 9.2 mph 16.1 mph N/A   Scattered Clouds
2:32 PM 81.0 °F 80.5 °F 53.6 °F 39% 30.01 in 10.0 mi South 9.2 mph 17.3 mph N/A   Scattered Clouds
2:53 PM 81.0 °F 80.5 °F 53.6 °F 39% 30.01 in 10.0 mi SW 8.1 mph 18.4 mph N/A   Clear
3:13 PM 82.2 °F 81.4 °F 54.0 °F 38% 30.01 in 7.0 mi SW 10.4 mph - N/A   Clear
3:33 PM 82.4 °F 81.6 °F 54.7 °F 38% 30.02 in 7.0 mi South 9.2 mph 16.1 mph N/A   Clear
3:53 PM 80.6 °F 80.4 °F 55.0 °F 41% 30.01 in 10.0 mi South 9.2 mph 16.1 mph N/A   Scattered Clouds
4:13 PM 82.2 °F 81.6 °F 55.8 °F 40% 30.01 in 10.0 mi South 8.1 mph - N/A   Clear
4:33 PM 80.4 °F 80.3 °F 54.5 °F 41% 30.01 in 10.0 mi SW 6.9 mph - N/A   Clear
4:53 PM 80.4 °F 80.4 °F 55.0 °F 42% 30.02 in 10.0 mi SSW 10.4 mph - N/A   Clear
5:13 PM 79.7 °F - 55.6 °F 43% 30.02 in 10.0 mi SW 4.6 mph - N/A   Clear
5:33 PM 77.2 °F - 55.2 °F 47% 30.02 in 10.0 mi WSW 6.9 mph - N/A   Scattered Clouds
5:52 PM 77.2 °F - 56.3 °F 48% 30.03 in 10.0 mi SW 6.9 mph - N/A   Scattered Clouds
6:13 PM 77.2 °F - 56.7 °F 49% 30.04 in 10.0 mi SSW 5.8 mph - N/A   Scattered Clouds
6:33 PM 76.1 °F - 57.2 °F 52% 30.04 in 10.0 mi SSW 5.8 mph - N/A   Scattered Clouds
6:53 PM 74.7 °F - 56.5 °F 53% 30.05 in 10.0 mi SSW 4.6 mph - N/A   Scattered Clouds
7:33 PM 74.7 °F - 58.1 °F 56% 30.07 in 10.0 mi West 4.6 mph - N/A   Overcast
7:53 PM 74.7 °F - 61.9 °F 64% 30.08 in 10.0 mi WNW 8.1 mph - N/A   Overcast
8:13 PM 71.6 °F - 60.8 °F 69% 30.08 in 10.0 mi NW 8.1 mph - N/A   Overcast
8:33 PM 69.8 °F - 59.9 °F 71% 30.09 in 10.0 mi NW 5.8 mph - N/A   Mostly Cloudy
8:53 PM 69.8 °F - 61.0 °F 73% 30.10 in 10.0 mi NNW 5.8 mph - N/A   Mostly Cloudy
9:13 PM 69.8 °F - 61.3 °F 74% 30.10 in 10.0 mi North 8.1 mph - N/A   Overcast
9:33 PM 69.8 °F - 62.1 °F 76% 30.11 in 10.0 mi North 5.8 mph - N/A   Mostly Cloudy
9:53 PM 69.8 °F - 62.4 °F 77% 30.11 in 10.0 mi North 6.9 mph - N/A   Overcast
10:13 PM 69.8 °F - 62.6 °F 78% 30.11 in 10.0 mi Calm Calm - N/A   Overcast
10:32 PM 69.8 °F - 62.6 °F 78% 30.12 in 10.0 mi Calm Calm - N/A   Overcast
10:53 PM 69.8 °F - 62.2 °F 77% 30.12 in 10.0 mi NNE 5.8 mph - N/A   Mostly Cloudy
11:13 PM 69.8 °F - 62.2 °F 77% 30.12 in 10.0 mi NE 3.5 mph - N/A   Mostly Cloudy
11:32 PM 69.8 °F - 62.2 °F 77% 30.12 in 10.0 mi ENE 4.6 mph - N/A   Mostly Cloudy
11:53 PM 69.8 °F - 62.6 °F 78% 30.13 in 10.0 mi Calm Calm - N/A   Overcast